Home > Weather > Paphos > Past weeks

Flag for Cyprus Weather for the Past 2 Weeks in Paphos, Cyprus

Now
59 °F

Passing clouds.


Feels Like: 57 °F
Forecast: 46 / 60 °F
Wind: 13 mph from Northwest

Location: Paphos Airport

Current Time: Feb 7, 2016 at 5:38:24 PM

Latest Report: Feb 7, 2016 at 5:00 PM


Visibility: N/A

Pressure: 30.01 "Hg

Humidity: 48%

Dew point: 39 °F

Location of PaphosLocation

Historic Weather in Paphos — Graph

°F

Paphos Temperature Yesterday

Maximum temperature yesterday: 61 °F (at 12:00 AM)
Minimum temperature yesterday: 46 °F (at 7:30 PM)
Average temperature yesterday: 56 °F

High & Low Weather Summary for the Past Weeks

 TemperatureHumidityPressure
High72 °F (Feb 4, 12:00 PM)94% (Feb 2, 3:30 AM)30.45 "Hg (Feb 2, 3:30 AM)
Low36 °F (Jan 25, 3:30 AM)31% (Jan 27, 1:00 PM)29.77 "Hg (Feb 6, 2:00 PM)
Average54 °F67%30.17 "Hg
* Reported Jan 23 4:00 PM — Feb 7 4:30 PM, Paphos, Weather by CustomWeather, © 2016

Note: Actual official high and low records may vary slightly from our data, if they occured in-between our weather recording intervals... More about our weather records

Advertising

Paphos Weather History for the Previous 24 Hours

 ConditionsComfort  
Time TempWeatherWind HumidityBarometerVisibility
4:30 PM
Sun, Feb 7
61 °FPassing clouds.15 mph48%30.01 "HgN/A
4:00 PM61 °FPassing clouds.17 mph52%29.98 "HgN/A
3:30 PM61 °FPassing clouds.17 mph55%29.98 "HgN/A
3:00 PM61 °FPassing clouds.17 mph55%29.98 "HgN/A
2:30 PM63 °FPassing clouds.16 mph56%29.98 "HgN/A
2:00 PM63 °FPassing clouds.16 mph56%29.98 "HgN/A
1:30 PM61 °FPassing clouds.16 mph55%29.98 "HgN/A
1:00 PM61 °FPassing clouds.17 mph55%29.98 "HgN/A
12:30 PM63 °FPassing clouds.15 mph52%29.98 "HgN/A
12:00 PM61 °FPassing clouds.15 mph52%29.98 "HgN/A
11:30 AM61 °FScattered clouds.14 mph55%29.98 "HgN/A
11:00 AM63 °FScattered clouds.10 mph52%29.98 "HgN/A
10:30 AM61 °FScattered clouds.9 mph55%29.98 "HgN/A
10:00 AM61 °FScattered clouds.5 mph59%29.98 "HgN/A
9:30 AM59 °FPassing clouds.2 mph68%29.98 "HgN/A
9:00 AM55 °FPassing clouds.5 mph67%29.95 "HgN/A
8:30 AM54 °FPassing clouds.6 mph67%29.95 "HgN/A
8:00 AM50 °FPassing clouds.8 mph71%29.95 "HgN/A
7:30 AM46 °FPassing clouds.8 mph82%29.92 "HgN/A
7:00 AM45 °FScattered clouds.6 mph81%29.92 "HgN/A
6:30 AM45 °FPassing clouds.5 mph81%29.92 "HgN/A
6:00 AM45 °FPassing clouds.3 mph81%29.92 "HgN/A
5:30 AM45 °FPassing clouds.7 mph81%29.89 "HgN/A
5:00 AM43 °FPassing clouds.8 mph87%29.89 "HgN/A
4:30 AM43 °FQuite cool.8 mph81%29.89 "HgN/A
4:00 AM46 °FCool.8 mph82%29.89 "HgN/A
3:30 AM48 °FCool.7 mph76%29.89 "HgN/A
3:00 AM48 °FPassing clouds.7 mph82%29.89 "HgN/A
2:30 AM48 °FPassing clouds.6 mph82%29.86 "HgN/A
2:00 AM50 °FPassing clouds.3 mph82%29.89 "HgN/A
1:00 AM50 °FPartly cloudy.5 mph82%29.86 "HgN/A
12:30 AM50 °FPartly cloudy.3 mph82%29.86 "HgN/A
12:00 AM48 °FPartly cloudy.5 mph82%29.86 "HgN/A
11:00 PM
Sat, Feb 6
50 °FPartly cloudy.7 mph82%29.86 "HgN/A
10:30 PM50 °FSprinkles. Partly cloudy.3 mph82%29.83 "HgN/A
10:00 PM50 °FPartly cloudy.6 mph82%29.83 "HgN/A
9:30 PM50 °FPassing clouds.6 mph82%29.83 "HgN/A
9:00 PM50 °FSprinkles. Passing clouds.8 mph82%29.83 "HgN/A
8:30 PM48 °FPassing clouds.8 mph87%29.83 "HgN/A
8:00 PM48 °FPassing clouds.8 mph82%29.83 "HgN/A
7:30 PM46 °FPassing clouds.6 mph87%29.80 "HgN/A
7:00 PM48 °FPassing clouds.7 mph82%29.80 "HgN/A
6:30 PM50 °FPassing clouds.7 mph82%29.80 "HgN/A
6:00 PM52 °FPassing clouds.7 mph77%29.77 "HgN/A
5:30 PM54 °FPassing clouds.6 mph72%29.77 "HgN/A
5:00 PM55 °FScattered clouds.12 mph72%29.77 "HgN/A
Weather by CustomWeather, © 2016

See weather overviewHow to use our weather pages